ECMWFFLT1_sfc_temp_132.txt.gz
Temp
79 79 80 81 82 82 81 81 80 79 80 81 81 83 83 83 82 82 82 81 81 82 80 80 79 79 79 80 79 79 79 78 76 74 74 75 72 73 75 73 73 75 75 75 74 71 70 66 66 72 73 72 72 72 75 76 77 74 71 73 77 76 75
80 81 82 82 81 81 79 79 79 80 79 80 83 82 82 83 82 82 82 81 80 81 81 81 80 80 78 77 77 77 77 77 77 76 75 75 75 74 73 72 73 74 74 74 75 73 70 68 67 67 67 71 70 71 72 74 76 75 74 73 76 77 75
80 81 82 80 79 79 78 77 77 78 79 78 80 82 81 83 82 82 82 82 80 81 81 81 80 79 77 77 77 77 76 76 76 77 75 76 76 75 75 74 72 72 72 73 73 72 71 71 67 70 69 67 64 68 71 71 73 74 74 74 74 77 76
79 80 79 78 79 77 76 76 77 76 77 77 78 79 80 82 81 81 81 82 81 80 80 81 79 80 79 78 78 77 76 75 76 76 76 76 76 75 75 74 72 71 70 69 70 71 70 70 70 71 72 73 73 68 69 72 73 74 75 74 74 75 75
79 79 78 77 78 77 76 75 76 76 75 77 77 78 78 80 80 80 80 80 80 79 79 80 80 80 79 80 78 77 77 76 76 76 75 73 74 75 74 75 74 75 74 74 75 74 72 72 70 69 73 76 77 74 73 71 74 73 74 73 75 75 74
80 81 80 79 79 77 77 76 76 74 75 76 77 77 78 79 80 78 78 78 78 78 78 80 80 80 79 79 79 78 77 76 75 74 73 73 73 73 74 76 75 75 75 77 76 74 74 74 73 71 76 79 71 71 72 71 69 74 75 74 76 76 75
80 80 80 80 80 79 79 77 77 76 75 76 77 77 79 80 80 79 79 79 79 79 79 79 80 80 79 79 78 77 77 77 77 75 74 74 74 74 75 74 73 74 75 76 75 75 74 72 71 72 73 72 72 70 72 72 74 71 72 75 76 76 75
81 81 81 81 80 79 79 79 77 77 78 78 80 79 80 79 79 79 79 79 79 78 79 78 79 79 79 79 79 78 78 78 77 75 74 74 73 73 73 73 73 74 75 76 75 74 75 74 74 74 73 68 66 69 68 73 74 71 72 74 76 75 75
81 81 81 81 81 80 79 80 78 78 79 80 81 81 80 80 79 79 79 80 79 79 79 79 78 79 78 77 78 77 76 77 75 75 76 75 74 74 74 74 74 74 75 76 76 75 76 77 76 75 74 71 68 65 67 67 70 70 76 71 73 75 74
81 81 81 80 80 80 79 79 79 79 80 81 81 81 80 80 79 79 79 79 78 78 78 78 78 79 77 76 76 75 74 75 74 74 74 75 75 75 74 74 74 76 76 76 76 77 76 75 76 76 76 73 72 69 66 65 66 68 71 73 70 72 74
82 82 82 81 80 79 79 79 78 79 80 82 81 81 81 79 79 78 79 79 78 78 78 79 80 78 76 76 75 75 76 75 73 74 74 74 73 73 73 73 74 74 76 73 74 73 74 73 74 75 75 76 75 71 70 67 67 70 69 71 74 72 72
82 83 82 82 81 80 79 78 78 79 80 80 80 79 80 80 79 79 79 79 78 78 78 78 78 76 76 75 74 75 75 74 73 73 73 72 72 72 72 71 73 73 72 72 72 72 73 73 73 74 75 75 75 73 71 70 67 69 72 66 71 75 72
84 83 83 81 80 81 81 79 79 79 79 80 80 80 81 81 80 79 80 79 78 78 78 77 76 76 75 74 74 75 74 73 73 73 72 72 72 72 72 72 72 73 72 72 72 72 72 73 73 74 74 73 73 72 71 70 69 66 69 69 69 71 72
81 82 82 83 81 82 81 79 79 79 81 80 81 80 80 80 81 79 79 78 78 77 77 75 75 75 74 74 74 74 74 73 73 73 72 71 72 72 72 73 73 72 72 71 72 71 73 72 72 72 73 73 72 72 71 70 69 65 65 68 68 68 69
81 81 80 81 80 82 81 79 79 79 79 81 83 82 81 80 80 79 79 79 78 78 77 76 75 75 74 73 73 73 72 73 73 72 71 71 71 72 71 72 72 71 71 71 71 73 73 72 72 72 72 72 72 72 72 71 71 67 62 65 67 71 67
80 80 80 80 80 82 80 79 80 78 79 81 82 82 81 80 79 80 79 78 79 78 77 76 75 74 73 73 73 71 72 72 72 71 70 71 72 72 70 71 71 70 69 69 69 71 71 71 73 72 72 73 72 72 73 73 71 68 64 64 67 67 67
79 79 79 80 80 80 80 79 79 78 80 81 81 80 81 81 80 79 78 78 78 77 77 75 74 74 74 74 73 72 72 72 72 71 71 72 72 71 71 70 70 69 69 68 69 69 70 70 70 71 70 71 71 70 71 70 70 70 67 64 66 70 68
78 79 79 79 79 80 80 79 78 78 79 80 81 80 80 81 80 79 77 78 78 77 77 75 74 74 73 73 73 72 73 73 72 71 71 72 70 71 70 70 70 69 69 68 67 68 69 68 71 70 70 71 70 68 67 67 69 70 68 65 65 69 68
78 78 79 79 79 79 79 79 78 78 81 81 80 80 79 79 79 79 79 79 79 78 78 75 75 74 73 72 72 72 72 72 71 72 72 72 72 71 70 71 70 70 69 67 67 68 68 67 69 68 68 69 68 65 64 67 69 69 68 67 66 64 66
78 78 78 79 79 79 78 78 77 77 80 81 80 78 79 79 78 79 78 78 77 77 77 76 74 73 72 72 72 72 71 71 71 71 72 72 72 72 71 71 70 69 69 69 67 67 67 67 67 67 67 65 64 61 65 68 69 68 67 66 66 66 65
79 78 79 79 79 78 78 77 76 77 78 80 79 79 78 78 77 79 77 76 77 77 77 75 74 72 72 72 72 72 71 70 71 70 70 71 71 71 71 71 70 70 70 70 69 68 67 66 67 66 66 66 64 64 66 67 67 67 66 66 66 66 66
79 78 78 78 77 77 77 76 75 76 78 79 78 79 79 78 77 77 77 75 77 76 74 72 72 71 71 72 72 71 71 71 70 69 70 70 70 71 71 70 71 71 70 66 61 63 63 63 66 65 65 66 65 66 67 67 67 67 66 66 65 66 66
79 78 77 77 77 76 76 76 75 76 77 79 79 78 79 78 77 76 76 75 75 72 71 71 64 59 61 71 72 71 71 70 70 69 68 68 68 69 70 70 69 62 58 57 56 53 51 55 58 64 67 66 65 66 66 66 66 67 65 64 65 64 63
79 78 77 76 77 75 75 75 75 75 76 77 77 77 77 77 76 76 76 74 72 70 70 69 54 51 52 56 69 71 70 69 69 69 68 68 67 68 68 70 68 61 60 57 58 49 49 50 51 51 56 58 60 66 67 64 65 66 64 64 66 64 64
78 77 76 76 76 76 74 74 73 75 75 76 76 77 75 76 76 75 74 73 70 68 70 57 49 49 50 50 58 71 70 69 68 68 68 68 68 68 68 67 67 65 65 65 65 60 54 48 47 47 48 49 48 43 45 59 64 62 62 64 64 64 64
77 76 76 75 74 74 74 72 73 74 74 75 75 75 75 75 74 74 72 71 69 68 70 51 48 48 48 49 51 62 71 69 67 68 68 69 69 68 67 66 66 65 66 59 62 64 63 59 48 45 47 46 45 47 45 41 43 55 64 65 64 63 65
75 74 74 74 72 72 72 72 73 73 73 73 73 74 74 73 73 73 72 71 69 69 70 50 47 47 47 47 48 56 72 68 68 69 69 70 69 68 67 66 65 64 65 63 64 64 64 62 60 58 58 61 63 54 43 42 44 41 50 63 65 64 65
75 73 73 73 71 71 71 72 73 73 74 73 73 73 72 71 71 71 70 69 69 68 67 46 46 45 46 46 46 53 70 68 67 68 68 69 68 67 67 67 66 65 65 63 65 63 64 62 61 60 60 61 63 63 62 61 60 61 63 63 66 66 66
75 73 72 71 70 70 71 72 73 74 74 74 72 73 73 72 70 69 68 66 66 66 63 44 45 45 44 45 46 65 68 66 66 67 67 68 68 68 68 67 66 66 65 64 57 50 56 63 62 61 60 62 63 63 63 58 51 56 59 64 67 67 66
75 73 71 70 70 69 70 72 72 74 73 74 70 70 72 72 71 70 67 66 65 66 62 47 44 44 44 43 50 66 66 66 67 66 66 67 67 68 67 68 68 67 65 66 53 46 48 53 62 61 61 61 61 62 61 59 43 41 41 42 40 40 39
74 72 72 71 70 70 72 72 71 69 71 72 69 69 71 71 71 71 69 68 67 66 64 51 43 44 44 43 53 66 66 66 66 66 66 67 68 68 67 60 64 67 65 65 46 46 44 55 62 62 62 61 60 59 61 63 61 56 38 39 40 38 39
75 72 71 70 69 69 70 70 70 69 69 70 69 70 70 72 71 70 69 68 61 66 66 52 43 44 43 43 55 67 67 68 65 65 66 65 67 67 67 61 58 61 64 56 42 44 44 54 62 62 62 61 60 59 60 63 61 60 59 60 60 59 56
74 71 70 70 69 69 69 69 69 68 68 68 68 69 69 70 69 69 69 69 67 69 65 57 49 42 43 43 49 66 67 66 64 65 66 65 65 66 66 65 58 48 47 42 43 42 44 47 61 63 62 61 60 59 63 64 63 63 62 62 63 62 62
72 72 72 70 69 68 69 69 69 68 68 69 70 69 67 66 66 67 68 68 69 69 66 59 50 42 43 44 46 54 68 67 65 64 64 65 65 65 65 65 65 50 41 42 42 42 43 44 48 63 62 63 63 61 60 64 62 56 63 63 63 62 63
71 70 71 70 68 67 69 71 70 68 69 70 70 68 66 65 66 67 68 66 66 66 61 55 56 43 43 43 45 48 64 66 65 63 62 65 65 66 65 65 66 52 41 41 42 42 42 44 42 59 63 49 42 47 62 64 63 61 62 63 64 63 64
68 69 68 68 68 66 68 69 69 68 68 68 67 66 63 64 65 65 64 65 66 65 63 60 50 49 43 43 44 45 49 58 49 64 64 62 64 66 67 66 63 46 42 40 41 41 42 42 44 56 47 40 42 44 52 63 62 62 62 63 63 63 63
69 68 67 68 68 67 66 66 66 66 66 65 64 64 64 64 63 60 60 62 64 66 65 61 49 47 46 42 43 44 45 48 48 61 64 63 66 68 66 65 59 42 42 41 40 41 41 42 52 47 43 40 39 45 61 62 63 62 61 62 61 62 63

ECMWFFLT1_sfc_temp_135.txt.gz
Temp
80 81 82 82 83 84 82 83 83 83 84 85 84 85 85 84 83 83 83 81 83 83 82 81 80 79 80 80 78 79 79 78 76 72 71 75 72 74 76 75 75 76 76 75 74 72 71 67 68 75 76 74 74 74 76 77 79 77 75 75 78 76 76
82 82 83 83 83 82 81 83 83 85 84 84 85 84 85 84 83 83 83 82 82 83 83 82 81 81 78 78 77 76 76 76 76 75 74 75 74 73 74 74 75 75 76 76 76 75 71 68 69 70 69 73 73 73 73 76 78 78 77 75 77 78 76
81 82 83 82 81 82 81 81 81 82 83 82 83 84 84 85 83 83 83 83 82 83 83 83 82 80 78 78 78 77 77 76 76 75 74 75 75 74 76 75 74 73 73 74 74 73 73 72 70 71 70 68 65 70 72 72 75 78 77 75 75 78 78
81 81 81 80 81 81 81 80 80 81 82 81 81 82 83 84 82 83 83 83 83 82 83 83 81 80 79 77 77 77 77 76 74 73 75 76 74 73 76 76 75 75 72 72 72 72 71 70 70 71 73 74 71 69 71 74 75 77 77 75 75 76 77
81 81 80 80 81 81 81 80 80 80 80 81 80 80 81 82 81 81 82 82 82 81 81 82 81 81 79 78 77 76 76 76 76 75 74 74 74 73 72 75 75 76 75 74 75 75 74 73 73 72 73 75 76 74 74 73 75 76 76 76 77 76 77
81 82 82 82 82 81 80 80 79 79 79 79 79 80 80 81 81 80 80 80 81 81 81 81 81 81 79 77 77 77 76 76 75 75 73 72 74 73 74 76 77 76 76 77 76 76 76 75 73 71 73 77 71 72 71 72 71 75 77 76 77 77 78
81 81 82 83 83 82 82 80 79 79 79 78 79 79 81 82 82 82 81 80 81 81 81 80 80 81 79 79 77 76 75 75 75 72 72 73 74 76 77 75 76 77 76 77 76 76 75 73 71 71 71 73 74 75 76 74 75 72 74 77 78 78 78
82 82 83 84 83 82 82 82 80 80 79 79 80 80 81 81 82 82 82 81 81 80 80 79 80 81 79 80 80 78 77 76 76 77 77 76 76 75 75 76 76 76 76 76 77 76 76 75 74 73 72 69 70 70 73 78 74 73 74 76 78 78 78
83 83 82 83 83 83 83 82 81 80 81 81 80 81 81 82 82 82 82 81 81 81 80 80 80 80 79 78 77 78 77 80 77 77 76 76 75 75 75 75 75 76 76 77 77 76 76 76 75 75 74 72 68 67 69 70 72 73 78 74 77 78 77
82 82 82 82 82 83 83 83 82 81 81 81 80 81 81 82 82 82 82 81 80 80 80 80 80 80 79 78 78 78 78 78 77 76 76 75 75 75 74 74 74 75 76 77 76 76 76 75 76 76 76 74 73 70 69 67 68 70 75 77 72 75 78
83 83 83 83 83 83 83 83 83 81 81 82 82 81 81 81 82 81 81 81 80 80 79 81 81 80 79 78 78 79 79 78 77 76 76 77 76 75 74 75 75 75 77 76 75 76 76 75 75 79 80 79 76 72 70 68 69 72 73 75 76 75 75
83 83 84 84 83 83 83 83 83 81 81 81 81 81 81 82 81 80 81 80 79 80 80 80 79 79 80 77 76 77 78 77 76 75 76 76 78 78 76 75 75 75 77 77 79 78 77 79 77 76 75 76 76 74 72 71 67 73 76 70 73 79 75
84 84 83 83 82 83 84 83 83 81 80 81 82 83 84 83 81 81 81 80 80 80 80 79 79 79 78 77 76 76 76 76 76 75 76 77 77 78 77 77 78 79 80 80 78 75 75 74 75 75 75 75 75 74 73 71 69 69 73 73 73 75 76
83 84 84 84 82 83 83 83 83 82 83 81 83 84 83 83 83 82 82 81 82 80 79 78 78 78 78 76 76 77 78 77 75 76 76 76 77 76 76 76 78 77 77 73 73 74 74 74 74 74 75 75 74 74 73 70 69 69 68 72 72 72 73
84 84 83 83 82 83 83 83 82 82 81 82 85 85 83 82 83 82 82 82 82 81 79 79 79 78 77 75 75 76 77 77 76 77 75 76 75 74 74 74 75 75 75 73 74 75 75 74 74 73 74 74 74 73 74 72 71 70 63 68 69 71 68
84 83 82 82 82 83 83 83 83 81 81 82 84 84 82 83 82 82 82 81 82 80 79 79 78 77 76 76 76 76 77 77 76 75 75 74 75 74 73 73 74 74 73 72 73 73 74 73 74 73 74 75 73 74 75 74 72 70 65 62 65 67 69
83 83 82 82 82 82 83 83 83 81 82 83 83 82 84 84 84 83 82 82 82 80 79 78 78 77 77 77 77 77 76 75 75 75 75 75 75 74 73 72 73 73 72 71 71 72 73 72 73 73 73 74 73 73 73 73 73 68 63 62 66 71 71
82 82 82 82 81 82 82 83 83 83 82 82 83 83 83 84 83 83 81 82 81 80 79 79 77 76 77 77 78 77 76 75 75 75 75 74 73 74 73 72 74 73 71 70 70 71 71 71 73 73 72 73 73 72 72 71 70 69 67 66 67 70 71
82 82 82 81 82 82 82 83 83 83 83 82 82 82 82 82 82 83 84 83 84 82 80 79 78 78 78 78 77 76 75 75 75 76 75 74 75 75 73 73 73 72 71 70 69 70 70 70 72 71 71 72 73 70 68 67 69 68 69 69 68 67 68
82 82 82 81 81 82 82 82 82 83 83 82 82 81 82 82 81 83 83 84 84 83 81 80 79 79 79 79 77 77 74 75 75 75 75 75 75 75 74 74 73 72 71 71 70 70 70 69 70 70 70 71 71 67 67 68 69 69 68 68 68 68 67
83 83 82 82 82 82 82 82 82 82 81 81 81 82 82 81 81 82 83 84 84 82 81 80 80 80 79 78 76 75 74 73 74 74 74 75 74 74 74 74 73 72 72 72 71 71 70 68 69 69 70 69 68 67 67 68 68 69 68 68 67 67 67
84 83 83 82 82 81 81 81 81 81 80 80 80 82 83 82 81 82 84 83 84 83 81 79 80 78 78 77 75 73 73 73 73 73 73 74 74 74 74 73 74 73 72 69 65 66 66 66 69 67 67 68 67 66 67 68 68 68 68 67 66 68 67
83 83 82 81 81 81 81 81 80 80 79 80 81 82 83 81 81 81 82 83 82 80 80 80 71 64 66 75 75 74 72 72 73 74 72 72 72 72 73 73 72 67 62 59 57 54 54 56 55 64 68 67 66 66 67 67 67 68 68 66 66 66 65
83 82 82 82 82 81 81 80 79 79 79 79 80 81 81 81 80 81 82 81 80 79 78 78 57 55 55 59 72 73 72 71 73 74 72 71 70 71 71 73 71 62 62 60 59 51 52 53 51 49 48 52 57 66 67 66 67 68 67 66 67 66 65
83 83 83 83 83 83 81 79 78 78 78 78 78 80 80 80 79 80 80 81 79 77 78 58 52 53 53 54 61 73 72 72 72 72 72 72 71 71 70 71 69 68 68 67 66 62 57 50 48 47 47 46 44 42 45 59 66 67 66 67 66 66 66
83 83 83 82 82 81 81 79 78 77 76 76 77 78 79 78 78 79 80 80 78 77 75 51 52 51 52 52 54 65 74 72 71 71 72 72 72 71 70 69 68 67 68 61 64 66 65 60 50 47 48 47 47 46 43 42 43 58 69 67 66 66 66
83 83 82 82 82 82 80 79 77 77 76 75 75 77 78 77 78 78 79 79 78 77 73 53 50 50 51 50 50 59 74 72 71 72 72 72 71 70 69 68 66 65 66 65 66 66 65 63 62 61 61 63 63 54 47 47 50 45 56 65 66 66 67
83 83 83 82 81 81 79 78 77 76 75 75 75 75 76 76 76 77 78 79 77 75 71 49 49 49 49 50 49 56 73 72 71 72 72 71 71 70 70 69 68 66 66 65 66 65 65 64 63 62 62 62 63 63 63 64 64 65 65 65 67 68 68
83 83 82 81 80 80 78 77 76 76 75 75 76 76 75 76 76 76 77 77 76 75 66 47 48 48 48 49 48 66 71 72 72 71 71 71 71 71 70 69 68 67 66 65 59 52 58 65 63 62 61 61 61 63 63 61 55 57 59 63 63 61 60
83 82 82 80 80 78 77 77 77 76 74 73 74 74 74 74 75 76 75 76 75 74 65 50 47 47 48 47 53 68 70 71 70 70 70 70 71 71 70 70 69 68 66 67 54 48 50 56 63 62 60 59 60 62 63 60 44 42 42 41 40 41 41
83 82 81 79 78 77 78 78 77 76 74 73 72 74 74 74 75 75 75 75 75 73 66 53 46 47 47 47 57 67 69 71 68 69 69 70 71 70 70 63 66 69 67 66 48 47 46 58 62 60 59 58 59 61 62 62 61 57 40 41 42 41 43
84 81 80 80 78 77 77 76 75 73 74 75 73 74 73 73 74 74 75 75 66 70 66 54 45 46 46 47 58 67 68 69 67 68 69 68 69 70 70 64 60 63 67 57 45 46 46 56 62 60 59 60 59 60 62 63 61 60 60 60 59 58 54
83 81 80 79 79 78 77 75 73 72 72 74 73 73 72 73 73 74 75 74 72 72 66 59 51 45 47 47 53 67 68 68 66 66 68 68 67 69 69 67 61 50 47 45 46 45 46 49 62 62 62 61 60 59 64 64 63 63 61 60 60 60 60
82 82 81 79 78 77 75 73 72 72 72 72 72 71 71 73 74 74 75 74 72 72 68 61 53 44 45 47 50 58 68 68 68 67 68 68 68 67 67 66 66 46 43 45 45 45 45 47 50 63 62 62 63 62 60 64 62 59 63 62 61 61 61
82 81 81 79 75 73 72 72 72 72 72 71 70 70 69 70 72 74 74 73 72 72 66 57 57 45 45 46 48 53 65 67 68 68 67 68 67 66 66 67 63 47 42 43 44 44 45 46 44 60 61 48 45 49 63 65 65 63 63 63 63 62 62
80 79 78 76 73 71 71 71 71 72 71 70 69 68 67 68 70 71 73 73 73 72 69 60 50 50 44 45 47 50 53 60 52 66 67 65 65 66 69 66 57 43 42 42 43 44 44 45 46 55 39 43 46 46 55 65 66 63 62 63 63 62 62
78 76 74 72 71 70 70 71 71 71 70 69 67 67 66 66 67 68 69 69 70 71 67 63 51 48 47 43 45 48 47 50 52 65 66 66 67 69 67 65 55 42 41 42 42 43 43 44 54 41 40 41 43 50 63 63 62 62 61 61 61 62 63

ECMWFFLT1_sfc_temp_138.txt.gz
Temp
75 76 77 77 78 78 78 78 78 78 80 80 79 81 81 80 79 79 79 77 78 78 77 76 75 75 76 77 75 75 74 73 72 69 68 69 67 68 71 70 70 71 71 70 70 65 62 59 60 67 69 68 67 67 69 70 71 67 66 66 69 68 65
77 78 78 79 78 78 77 77 78 80 80 80 81 80 81 81 79 79 79 78 77 77 77 77 76 77 76 74 73 73 73 72 72 71 70 68 68 67 68 69 70 69 69 69 70 68 64 61 61 63 62 66 65 65 67 67 68 68 68 68 68 70 66
77 78 79 78 77 77 77 76 76 76 78 77 79 81 80 82 80 80 80 79 77 78 78 78 77 76 75 75 74 73 73 72 72 71 70 69 68 68 69 69 67 67 67 67 67 67 66 66 62 63 64 62 60 62 65 65 67 69 68 67 67 69 68
76 77 76 76 77 76 76 76 76 76 77 78 78 78 79 80 79 79 79 80 78 77 77 79 76 77 75 74 74 74 74 73 71 71 70 70 69 69 70 69 67 68 66 66 65 67 65 63 62 64 65 67 64 62 64 68 68 69 69 66 67 66 66
77 77 76 76 77 76 76 76 76 76 76 77 77 77 77 79 78 77 78 79 78 77 77 77 77 77 76 75 74 73 73 73 72 71 71 70 70 69 69 69 69 70 70 68 69 69 67 65 65 64 65 68 67 67 68 65 69 68 68 67 68 67 68
78 78 78 77 78 77 76 76 76 75 76 76 76 76 77 77 77 76 77 76 76 76 77 77 76 77 75 74 74 74 73 73 72 71 69 69 70 69 68 69 70 71 70 70 70 69 68 69 68 63 66 68 63 65 67 66 64 69 70 68 69 69 68
78 78 78 78 78 78 77 77 76 76 76 76 76 76 77 79 78 77 77 77 77 77 77 77 77 77 76 75 74 73 73 73 73 71 71 71 70 70 70 69 68 69 69 71 70 70 68 68 65 64 64 65 65 64 64 66 67 66 67 70 70 70 68
79 78 79 79 78 78 78 78 77 77 76 77 77 77 78 78 78 78 77 77 77 77 77 76 77 76 75 75 74 73 73 73 72 71 71 70 70 69 68 67 68 68 69 70 70 70 70 69 68 66 65 62 62 63 61 66 66 67 66 69 72 70 69
78 79 78 79 79 79 79 79 78 77 77 77 78 78 78 78 78 78 78 78 77 77 77 77 76 76 75 73 73 73 72 74 72 71 70 71 70 69 69 69 69 69 70 71 71 69 70 70 69 68 67 64 60 58 61 60 64 66 72 66 69 70 69
78 78 78 78 79 79 79 79 78 78 78 78 77 78 77 78 77 78 78 78 77 77 77 76 77 76 75 74 73 72 72 73 72 71 71 71 71 71 70 70 69 69 69 70 70 71 71 69 69 68 68 65 65 60 58 58 60 61 68 71 65 68 71
79 79 79 79 79 79 79 79 79 78 78 78 78 78 77 77 77 77 77 77 77 77 76 77 77 76 75 74 74 73 73 73 72 72 72 72 71 71 70 70 70 69 70 69 70 69 69 69 67 68 67 68 66 63 62 59 59 64 63 67 69 67 68
80 80 80 80 80 80 79 79 79 78 78 78 78 77 77 78 77 77 77 77 77 76 77 76 76 75 76 73 73 72 73 73 72 71 71 71 71 71 70 70 70 69 70 69 69 70 70 69 68 68 68 68 67 66 64 63 59 62 67 62 65 71 69
81 81 80 79 79 80 81 80 79 78 78 78 78 78 78 78 77 77 77 77 77 77 76 76 76 75 75 73 73 73 73 73 73 71 71 71 72 72 71 70 70 70 70 70 70 70 70 70 70 67 68 66 66 66 66 63 61 59 62 62 63 67 70
79 80 80 80 80 80 80 80 80 80 79 78 79 78 78 78 78 78 78 77 78 76 76 75 75 75 74 73 73 73 74 74 73 71 71 71 73 72 72 71 71 71 72 71 71 69 68 68 67 67 67 67 65 65 65 63 60 59 60 63 62 61 62
80 80 79 80 79 81 81 80 79 80 79 79 80 80 79 78 78 78 78 78 78 77 77 76 75 75 74 73 72 73 73 74 73 72 71 71 71 72 71 70 72 72 72 70 68 69 68 67 67 65 66 65 64 64 64 63 61 58 56 61 59 62 60
80 79 79 79 79 81 81 80 81 79 79 79 79 80 79 79 79 79 78 78 78 77 77 77 75 74 74 73 73 72 73 73 72 71 70 70 72 72 70 68 69 69 70 68 67 66 66 66 66 65 65 66 64 64 65 65 61 58 58 58 59 59 58
79 79 79 79 79 80 81 80 80 80 80 79 79 78 79 80 79 79 78 78 78 77 77 76 75 75 75 74 73 73 73 72 72 72 71 72 72 71 70 68 68 68 67 65 65 65 65 66 65 65 64 64 63 63 64 63 63 59 58 57 58 61 61
79 78 78 79 79 79 80 80 80 80 79 79 79 79 79 80 80 79 77 78 78 78 78 77 75 74 74 74 74 73 73 73 72 72 72 72 72 71 70 68 68 69 67 65 64 64 65 63 66 63 63 63 64 63 64 64 61 60 59 57 58 61 61
78 78 79 79 79 79 80 80 80 80 81 79 79 79 79 80 80 80 80 79 79 79 79 77 76 75 75 74 73 73 73 72 72 73 73 72 72 70 68 68 68 69 66 65 64 63 63 63 64 63 63 63 63 62 60 60 61 61 60 59 59 59 59
79 79 78 79 79 80 80 80 80 80 80 79 79 78 79 80 79 79 80 79 79 79 79 77 76 75 75 74 74 73 72 72 71 71 72 72 72 71 70 69 68 68 66 65 64 63 62 62 63 62 62 62 62 60 60 59 60 59 58 58 59 59 58
79 79 79 80 80 80 80 80 80 80 80 79 79 79 79 79 79 79 79 79 79 79 78 77 77 75 75 75 73 73 72 71 71 71 71 72 72 71 70 69 69 68 67 66 65 64 63 62 62 61 62 61 61 60 59 59 58 58 57 58 57 56 57
79 79 79 80 79 79 79 80 80 80 79 79 78 80 80 80 79 79 79 79 79 79 78 77 76 75 74 74 73 72 72 71 71 71 71 71 70 70 69 68 69 68 67 67 64 64 63 63 63 60 60 60 59 59 58 58 58 57 57 57 56 58 56
79 80 79 79 79 79 80 79 79 79 79 79 79 79 80 79 79 79 78 79 79 77 77 77 71 64 65 74 73 73 72 71 71 71 70 69 68 69 69 68 68 67 64 63 60 58 57 59 61 63 60 60 59 58 57 57 57 57 58 56 55 55 55
80 79 79 79 79 79 79 79 79 79 79 79 78 78 78 78 78 78 78 78 77 77 77 76 61 56 57 61 71 72 71 70 71 70 69 68 67 67 67 68 66 65 63 61 59 52 50 49 49 53 57 59 61 59 58 56 56 57 56 57 57 56 54
79 79 79 80 80 80 79 79 78 78 78 77 77 77 76 77 78 77 77 78 77 77 76 66 54 54 55 55 62 71 70 70 69 69 69 68 68 67 66 66 64 63 62 61 59 55 52 48 46 45 45 46 44 43 47 56 58 57 57 57 56 56 56
76 79 80 80 79 79 79 78 78 77 77 77 76 76 76 76 77 77 77 77 76 76 77 57 52 53 53 53 56 65 71 70 69 69 69 69 68 67 65 64 62 63 64 60 61 59 56 52 49 47 47 47 47 46 44 43 45 55 60 59 57 56 56
72 75 79 80 79 79 78 78 77 77 77 76 75 75 75 75 76 77 76 77 76 76 76 53 51 52 52 52 53 61 72 70 69 70 69 69 68 67 65 65 62 61 61 60 61 60 58 56 54 53 54 54 54 50 48 49 49 50 56 59 57 58 59
73 71 73 77 78 78 78 77 77 77 76 76 75 75 75 75 75 76 76 76 76 75 75 49 50 50 51 52 51 59 71 70 70 69 69 67 67 66 66 66 63 62 61 60 61 60 59 57 56 56 55 56 56 55 55 55 56 58 60 60 58 55 55
74 72 73 75 78 77 77 77 76 76 75 76 76 76 75 75 74 75 76 75 75 75 67 47 49 50 50 51 52 68 70 69 68 68 67 67 67 67 66 65 63 62 61 61 57 52 55 58 56 56 55 54 55 56 57 54 48 49 55 56 55 53 51
73 72 70 72 77 77 77 76 76 76 75 75 74 74 74 74 75 75 75 75 74 75 64 49 48 49 50 49 56 70 68 68 68 67 67 66 67 66 66 66 64 63 62 61 53 48 50 54 57 56 56 55 55 55 56 52 44 42 42 43 43 42 41
73 70 69 70 72 77 77 77 77 75 75 74 73 74 74 74 75 75 74 74 74 73 62 51 47 49 49 49 60 69 68 67 66 67 67 67 66 66 66 63 65 63 61 60 48 47 47 55 57 56 55 54 53 54 54 54 54 48 42 42 42 42 42
72 68 68 68 72 76 77 76 77 75 75 75 74 75 74 74 74 74 74 75 67 70 61 53 46 48 49 49 60 69 69 68 66 67 67 65 65 65 65 62 62 61 62 55 46 46 47 55 58 57 55 53 52 53 54 55 55 53 51 50 48 49 47
71 70 69 68 71 77 77 77 76 75 74 75 74 74 73 74 73 73 73 73 71 70 61 57 50 47 48 49 55 69 69 67 66 65 66 65 64 64 64 63 58 51 49 46 46 46 47 51 57 56 55 53 52 52 56 55 55 55 54 53 52 52 51
71 73 73 73 71 74 77 76 76 74 73 74 73 73 72 72 73 72 73 73 72 70 63 58 52 46 47 49 51 59 68 67 67 66 65 63 65 63 63 62 62 49 45 46 46 46 47 48 51 56 55 54 55 56 55 56 56 56 54 53 53 52 53
66 64 65 64 64 68 75 77 76 74 74 73 72 71 71 71 71 71 72 72 71 70 61 56 55 46 47 48 50 53 66 67 67 66 65 64 65 64 64 63 58 47 45 45 47 47 46 46 47 55 56 50 50 48 58 58 57 56 55 53 53 53 53
67 67 66 65 64 64 69 75 74 73 73 72 71 70 70 70 70 70 70 70 70 68 60 57 50 50 46 47 48 50 54 59 53 66 65 63 64 64 64 62 55 46 44 45 46 46 46 46 45 51 45 44 46 46 52 57 56 56 54 54 54 53 53
67 66 67 67 66 65 67 72 73 72 72 71 70 69 69 69 69 68 68 68 69 67 60 60 50 49 49 46 47 49 49 52 52 64 66 64 65 65 63 58 51 43 44 45 45 45 46 46 50 41 41 44 44 47 57 56 54 55 52 52 52 53 53

ECMWFFLT1_sfc_temp_141.txt.gz
Temp
72 71 72 72 71 72 72 73 72 74 75 75 74 75 74 73 73 73 74 72 73 73 72 72 71 71 71 71 71 70 69 67 66 65 64 65 63 64 66 65 65 65 65 63 61 59 56 56 59 61 62 64 64 63 66 66 66 63 63 60 64 63 61
74 71 72 72 71 72 72 71 72 73 74 75 75 74 75 74 73 74 74 73 72 73 72 72 72 72 71 70 70 69 69 68 67 66 65 64 65 64 64 64 65 64 64 65 63 63 57 56 57 59 59 61 62 61 63 65 65 65 64 62 64 64 62
74 72 72 72 70 71 72 71 72 71 73 73 74 75 75 75 74 74 74 74 72 73 72 73 72 71 71 71 71 70 70 68 68 67 66 65 66 66 66 65 64 62 63 64 62 61 60 61 57 58 59 59 58 62 62 62 64 63 64 63 64 64 63
73 73 70 72 71 70 72 71 72 72 72 73 73 74 74 75 74 74 74 74 74 72 72 73 72 72 72 71 71 71 70 69 68 67 66 66 66 65 66 65 65 65 63 62 62 62 61 58 58 57 60 62 62 60 61 64 65 63 64 62 64 63 62
73 73 72 71 73 71 72 71 71 71 71 72 72 73 73 73 73 73 74 74 73 73 71 73 73 72 72 71 70 70 70 69 68 68 67 66 65 65 65 65 65 65 64 64 63 63 62 60 60 58 58 60 62 61 63 61 64 64 63 64 64 64 63
74 74 73 72 74 72 72 71 71 71 71 71 72 72 73 73 73 72 72 73 72 73 73 72 72 72 72 71 70 70 70 69 68 68 66 66 66 65 66 65 65 65 65 64 65 64 63 63 62 58 58 61 59 59 61 62 60 65 64 64 64 64 63
74 74 74 73 74 74 73 72 72 72 72 72 72 72 74 75 74 73 73 73 72 72 73 72 72 72 72 72 70 70 70 70 68 68 67 67 66 66 66 65 65 65 65 65 65 65 63 62 59 60 59 59 59 57 58 60 62 63 61 63 64 65 64
75 74 74 74 74 74 74 74 73 74 73 73 74 74 74 74 74 72 73 73 72 71 72 72 72 71 71 71 71 70 70 69 69 68 67 67 67 66 65 65 65 65 65 64 65 65 64 64 61 60 60 60 57 55 56 59 58 62 63 62 66 65 65
75 75 74 74 75 75 75 75 74 74 74 74 74 74 74 74 74 73 72 73 73 71 72 73 72 70 70 70 70 69 69 70 68 68 68 67 67 66 66 65 65 65 65 65 65 64 63 64 64 62 62 60 58 54 55 54 55 58 64 60 63 65 65
74 74 74 74 75 75 76 75 75 74 74 74 73 74 74 74 74 74 73 73 73 72 71 72 72 71 70 70 70 69 69 69 69 68 67 67 67 66 66 65 65 64 64 65 66 66 66 65 65 62 63 62 60 57 52 52 54 55 61 65 61 63 66
75 75 75 75 76 75 75 75 75 74 74 75 75 74 74 74 74 74 73 72 72 73 72 71 72 71 70 70 70 70 70 69 68 67 67 68 67 66 66 65 65 64 65 65 65 66 66 66 64 64 63 63 61 59 56 54 53 58 58 62 64 61 61
75 76 76 76 76 76 75 75 75 75 75 74 74 74 73 74 74 73 73 72 72 72 72 71 71 71 70 69 69 69 69 69 68 67 67 67 67 66 65 65 65 65 65 65 65 65 65 65 65 63 62 63 61 61 59 57 54 55 59 59 59 65 61
76 76 76 76 76 76 76 76 76 75 75 75 75 75 74 74 74 73 73 72 72 72 72 72 71 71 70 69 68 68 68 68 68 67 67 67 68 67 66 65 65 65 65 65 65 65 64 64 65 62 63 62 61 60 58 56 56 54 56 56 59 61 62
75 76 76 76 76 76 76 76 76 76 76 75 75 74 74 74 74 74 73 72 72 72 72 71 71 71 70 68 69 69 68 68 68 67 67 66 68 67 66 66 65 65 65 65 64 64 64 64 63 62 64 61 60 60 61 57 55 53 57 54 55 57 59
76 76 75 76 75 76 76 76 76 76 75 75 75 75 74 74 74 73 73 73 72 72 72 72 71 71 70 69 68 69 69 68 68 67 67 66 67 68 66 66 66 65 65 65 64 64 64 62 63 62 61 62 59 60 60 61 55 53 53 54 54 58 57
75 75 75 75 75 76 76 76 76 75 75 75 75 75 74 74 74 73 73 73 73 72 72 72 71 71 70 70 69 69 69 68 68 67 66 67 67 67 65 65 65 65 66 65 64 64 63 63 63 63 62 61 61 60 59 60 56 53 54 53 53 58 58
75 75 75 75 75 76 76 76 76 76 75 75 74 74 75 74 74 73 73 73 73 72 72 72 71 71 71 70 69 69 69 68 68 68 68 67 67 67 66 64 63 64 64 64 63 61 61 62 61 61 61 60 61 59 58 57 59 51 52 54 53 56 56
74 75 75 75 75 75 76 77 76 76 76 75 75 75 74 74 74 73 73 73 73 73 72 72 71 71 71 71 70 69 69 69 68 68 68 68 68 67 66 65 64 63 62 63 61 61 61 60 61 61 60 60 60 59 58 58 58 55 55 54 54 54 54
74 75 75 75 75 76 76 76 76 76 76 75 75 75 74 74 74 74 74 74 73 73 73 72 72 71 71 71 70 70 69 69 68 68 67 67 68 67 66 66 65 64 63 62 60 61 60 60 60 59 59 59 59 57 56 54 55 55 56 54 55 54 52
74 74 75 75 76 76 76 76 76 76 76 76 75 74 74 74 74 74 74 74 73 73 74 73 72 71 71 71 70 69 69 69 68 68 68 67 68 67 66 65 65 64 65 63 61 60 60 58 59 58 58 58 56 57 54 55 55 55 55 54 53 52 53
73 74 75 76 76 76 77 76 76 77 76 75 75 74 74 74 74 74 74 74 74 74 73 73 73 72 71 71 70 69 69 68 68 67 67 67 67 67 65 65 64 64 64 63 62 61 60 59 58 58 57 58 56 56 55 53 54 54 53 53 52 50 50
72 73 74 75 76 76 76 77 77 76 76 75 75 75 75 75 74 74 74 74 74 74 73 73 73 72 71 71 70 69 69 69 68 67 67 66 66 66 65 64 64 64 63 64 62 61 61 61 59 59 56 56 55 55 54 54 54 53 52 52 52 51 51
73 74 74 74 75 76 76 76 76 76 75 76 75 75 75 75 75 74 73 73 73 73 73 73 69 63 64 71 70 70 69 68 69 68 66 65 65 65 64 63 64 65 63 62 59 57 55 57 60 62 58 55 56 55 54 54 53 53 53 51 50 50 50
74 74 75 75 75 75 75 76 75 75 75 75 75 74 74 74 74 74 74 73 73 72 73 73 62 55 56 59 69 70 69 67 68 68 67 65 64 63 62 63 62 63 62 61 59 54 53 54 54 55 56 57 59 58 55 54 53 52 52 52 50 51 51
74 75 75 75 75 75 75 75 75 75 75 74 75 75 74 74 74 74 74 74 73 73 73 66 55 53 54 55 61 70 69 68 67 67 67 66 64 63 62 62 62 62 61 61 60 57 55 53 52 51 50 51 52 54 55 57 55 51 51 53 51 52 51
74 74 75 75 75 75 75 74 74 74 74 75 75 73 73 73 73 74 74 73 73 73 73 62 53 52 52 53 55 64 70 69 67 67 66 66 65 63 62 61 61 60 62 61 59 56 55 53 51 50 50 50 48 47 46 48 52 58 54 54 54 51 53
74 74 75 75 75 75 74 74 74 75 75 74 74 74 73 73 74 73 74 73 73 74 73 61 51 51 52 52 52 60 71 69 67 67 67 66 65 64 62 61 59 58 57 58 57 55 54 53 51 52 52 52 52 51 46 46 46 49 53 56 55 56 54
74 75 75 75 74 74 74 74 74 74 74 74 74 73 73 72 73 73 73 74 73 73 74 57 50 50 51 51 51 58 71 69 68 67 67 65 65 64 63 62 60 59 57 57 56 55 54 53 53 52 52 51 51 51 51 50 50 52 53 52 53 53 50
73 74 74 74 74 74 74 74 74 74 74 74 75 74 74 74 73 73 73 73 72 72 74 53 50 50 50 50 50 66 70 68 67 66 67 65 64 64 63 61 60 58 57 57 54 50 53 54 53 52 51 50 49 49 50 52 48 50 53 52 50 50 49
68 69 71 72 73 73 73 73 74 75 73 74 74 73 73 73 73 73 72 72 72 72 72 54 49 49 49 49 53 69 69 68 66 65 66 64 64 63 63 61 60 58 57 57 51 47 48 53 54 53 52 50 50 50 49 45 43 43 44 44 44 43 41
68 70 70 69 71 72 73 74 75 74 74 73 73 73 73 73 73 73 72 72 72 71 72 58 48 49 49 48 58 70 69 67 66 65 65 64 64 64 64 61 62 59 58 57 47 46 47 53 55 53 52 51 49 49 46 47 48 45 42 42 42 42 43
65 67 69 69 69 68 71 72 73 74 74 74 74 74 73 73 73 73 73 73 67 70 72 57 46 48 48 48 59 70 69 67 65 65 65 64 64 63 63 60 59 59 59 54 45 46 47 54 56 54 53 52 50 49 48 48 48 46 46 46 44 46 45
67 67 69 70 71 71 72 72 72 73 73 74 73 72 72 72 71 72 72 71 71 70 69 57 50 47 48 49 55 70 69 67 65 64 64 64 62 63 63 61 57 50 50 46 45 45 46 50 55 54 53 52 51 50 49 50 49 49 48 49 47 47 47
63 64 66 68 67 65 65 67 70 71 72 72 70 68 70 70 71 71 72 71 72 71 68 59 52 46 48 49 52 61 69 68 67 65 64 63 63 62 62 61 59 51 47 45 45 45 46 48 51 55 54 53 54 53 50 51 51 52 49 48 47 46 47
61 62 63 63 64 65 65 66 66 66 65 65 63 62 62 65 69 71 71 71 71 71 64 57 56 47 47 49 52 56 67 68 67 66 64 64 64 63 63 61 59 50 46 45 45 45 46 47 48 54 54 49 47 45 52 53 51 50 48 48 47 46 47
61 62 62 62 61 62 63 64 65 63 61 61 61 62 63 63 64 66 69 70 70 71 63 57 51 51 47 48 50 53 57 61 54 66 65 63 63 63 63 62 58 49 46 45 45 45 46 46 48 52 47 45 45 45 49 51 50 50 48 48 47 47 47
62 62 62 62 61 61 61 61 60 59 59 60 61 61 61 62 62 63 65 68 69 67 60 59 50 50 50 47 49 51 52 53 52 65 66 65 64 64 62 61 55 46 46 45 45 45 45 46 51 46 44 45 44 45 51 50 49 50 48 47 47 47 48

ECMWFFLT1_sfc_temp_144.txt.gz
Temp
72 72 72 72 72 71 70 70 71 71 72 72 72 72 73 72 72 71 71 71 71 71 70 70 69 69 68 68 67 67 66 65 65 64 63 64 63 63 64 63 62 61 60 59 58 60 54 55 57 58 59 60 60 60 63 63 63 61 59 59 61 60 59
73 73 72 72 70 71 70 69 70 71 72 72 73 72 73 73 72 72 72 71 71 71 71 71 70 69 68 67 66 66 65 65 65 66 64 63 64 63 63 62 62 61 59 59 60 59 54 55 56 57 58 59 58 58 59 62 63 63 62 61 62 62 60
72 72 70 70 69 69 71 69 69 70 71 71 72 72 72 73 72 72 72 72 71 71 71 71 71 69 69 68 67 67 66 65 65 65 65 64 65 65 64 64 62 60 59 60 59 59 57 57 56 56 57 58 56 60 60 59 61 63 62 62 61 62 61
71 71 69 69 70 69 70 70 69 70 70 71 71 72 72 72 72 72 72 72 72 71 71 71 70 70 69 69 69 68 67 66 65 65 64 64 65 64 64 64 64 63 62 61 60 59 59 55 56 55 57 59 61 59 60 62 62 62 62 60 60 60 61
72 71 70 70 70 69 70 70 70 69 69 70 71 71 71 72 72 72 72 72 72 71 71 71 71 71 70 70 69 68 67 67 66 65 65 64 64 64 64 64 64 65 64 63 62 61 61 59 59 57 56 56 59 59 61 59 60 61 61 61 61 61 61
72 72 71 71 71 71 70 70 69 69 69 69 70 70 71 71 72 71 71 71 71 71 71 71 71 71 70 70 69 68 68 67 66 66 65 65 64 64 64 65 65 64 65 65 63 62 62 61 60 57 57 57 58 57 61 59 58 61 62 62 61 60 61
72 72 72 72 72 72 71 71 71 70 70 70 70 71 72 72 72 72 72 72 72 71 71 71 71 71 71 70 69 68 68 68 68 66 66 66 65 65 65 64 64 64 65 64 63 62 62 60 58 59 58 55 55 57 56 56 58 60 59 60 61 61 60
73 72 73 73 73 72 72 72 72 72 71 71 71 72 72 72 72 72 72 72 71 71 71 70 71 70 70 70 69 69 69 69 68 67 67 66 66 65 64 65 65 65 65 64 63 63 63 63 62 60 59 57 53 53 55 56 55 59 61 60 63 61 61
73 73 72 72 73 73 73 73 72 72 73 73 72 71 72 73 72 71 71 72 72 71 71 71 70 70 70 70 69 69 69 70 68 67 67 66 66 65 65 65 64 65 65 64 64 64 63 63 63 61 61 60 57 53 51 54 53 56 60 59 59 61 62
72 72 72 72 73 73 73 73 73 73 73 73 72 72 71 72 73 72 71 71 71 71 71 71 71 70 70 70 69 69 68 69 68 67 67 66 66 66 65 65 65 65 65 64 64 64 63 62 62 62 63 62 59 57 51 49 51 53 57 61 59 60 63
72 72 73 73 73 73 73 73 73 72 72 73 73 72 72 71 72 72 72 71 71 71 71 71 71 71 70 69 69 69 69 69 68 67 67 67 66 66 65 65 65 64 65 64 64 64 63 62 62 62 61 62 61 60 57 55 54 54 53 56 61 59 59
73 73 73 73 73 73 72 73 72 73 73 72 72 72 71 71 71 72 72 71 71 70 71 71 71 70 69 69 69 69 69 68 68 67 67 67 67 66 65 65 64 64 64 63 64 63 63 63 63 62 61 61 60 62 59 55 53 52 57 56 57 62 60
73 73 73 73 73 72 73 73 73 72 72 72 72 72 71 71 71 71 71 71 71 71 71 71 71 70 69 69 69 68 68 68 67 67 67 66 67 66 65 65 65 65 64 63 63 63 63 63 63 62 62 61 60 60 59 56 55 57 52 54 55 59 61
72 73 73 73 73 73 73 73 73 73 73 72 72 72 71 72 72 72 72 71 71 71 71 70 70 70 69 68 68 68 68 68 67 67 66 66 67 66 65 65 65 65 65 63 63 63 63 63 62 62 62 61 60 58 59 57 56 54 53 52 52 55 56
73 73 73 73 73 73 73 73 73 73 73 73 73 73 72 72 72 72 72 72 72 71 71 71 70 70 69 68 68 68 68 67 67 67 66 66 65 66 66 65 65 65 64 64 64 63 63 62 62 61 61 61 60 58 59 59 55 55 55 54 56 53 53
73 72 72 72 72 73 73 73 74 73 73 73 73 73 73 72 72 72 72 72 71 71 71 71 71 70 69 69 68 68 68 67 67 66 66 66 66 66 65 65 65 65 64 63 63 64 63 62 62 62 62 60 60 59 58 60 55 54 53 52 51 52 53
72 72 72 72 72 72 73 73 74 73 73 73 73 73 73 73 72 71 71 71 71 71 71 71 70 70 70 69 68 68 68 67 67 67 67 66 66 66 65 64 64 64 64 63 63 62 62 62 61 61 61 60 60 59 58 58 60 54 52 54 51 54 54
71 72 72 72 72 73 73 73 73 73 73 73 73 73 72 73 72 71 71 71 71 71 71 71 70 70 70 70 69 69 68 68 67 67 67 67 67 66 65 65 65 64 63 63 62 62 61 60 61 60 60 59 59 59 58 58 58 54 54 55 53 51 51
71 71 72 72 72 73 73 73 73 73 74 73 73 73 72 72 72 72 72 72 72 72 71 71 70 70 70 70 69 69 69 68 68 68 67 67 67 67 66 65 65 64 63 63 63 62 61 60 60 59 59 59 59 57 57 55 56 55 56 55 54 51 50
68 72 72 72 73 73 73 73 73 73 73 73 73 72 72 72 72 72 72 72 71 71 71 71 70 70 70 70 69 69 68 68 68 68 67 67 67 67 67 66 65 64 64 64 64 63 61 59 59 59 59 59 57 57 56 55 54 55 54 53 50 52 53
68 71 73 73 73 73 73 73 73 74 73 73 73 73 72 72 72 72 72 72 72 72 71 71 70 70 70 70 69 69 68 68 68 67 67 67 67 67 67 66 66 65 65 65 64 63 61 60 59 58 57 58 56 56 55 53 53 53 52 51 52 49 48
68 70 71 73 72 73 73 73 73 73 73 73 73 74 73 73 72 71 72 72 72 71 71 71 71 71 70 70 70 69 69 68 68 67 67 66 66 67 66 66 66 65 65 65 63 62 61 62 59 58 56 56 56 56 54 53 53 51 50 50 50 49 49
67 70 72 72 72 72 72 73 73 73 73 73 73 73 73 73 72 72 71 71 71 71 71 71 67 62 63 70 70 70 69 68 68 67 66 66 65 66 66 66 66 66 63 62 59 56 55 57 60 62 59 56 56 55 54 53 51 51 51 50 50 49 48
66 67 70 71 72 72 72 73 72 73 73 73 73 73 73 72 72 72 71 71 71 71 71 71 61 55 54 58 68 69 69 68 68 67 67 66 65 64 65 65 64 64 63 62 60 54 53 53 53 55 56 58 60 59 55 53 53 52 52 52 50 49 51
67 68 70 70 71 71 72 72 72 72 72 72 73 73 72 72 72 72 72 71 71 71 71 64 56 53 53 53 58 69 69 68 67 67 67 66 66 65 64 63 63 63 63 63 62 58 55 53 51 51 51 51 52 54 55 58 55 50 51 51 49 50 50
69 70 70 70 71 71 71 71 71 71 72 73 73 72 72 72 72 72 72 71 71 71 71 61 54 53 52 51 52 62 70 69 67 67 67 67 66 66 65 63 62 62 63 61 62 59 58 56 52 51 52 52 52 50 48 50 53 58 55 55 53 50 51
68 69 70 70 70 70 70 70 71 72 72 72 72 72 72 72 72 72 72 71 71 71 71 63 53 52 51 50 50 55 71 69 67 68 67 67 67 66 65 64 63 61 60 60 59 58 58 56 54 53 52 53 53 55 50 48 49 51 54 57 55 53 52
68 69 69 69 69 69 70 70 71 71 72 72 72 71 72 71 72 72 72 72 71 71 71 60 53 51 50 50 49 52 70 70 68 68 68 68 67 66 65 64 63 63 60 59 58 57 57 55 54 53 52 52 52 52 52 51 52 52 53 52 55 56 54
64 65 67 67 67 68 68 68 68 69 71 72 72 73 73 73 72 71 72 71 71 70 72 57 52 51 50 49 48 58 68 69 68 67 67 67 67 67 65 64 62 61 59 59 55 51 54 56 55 53 52 51 49 48 50 52 48 51 54 54 54 55 53
63 63 64 64 64 65 64 65 63 62 62 64 68 71 72 72 72 72 71 71 70 70 71 61 51 51 49 48 50 62 66 69 68 67 67 67 67 66 65 64 63 61 59 58 52 47 48 53 55 54 53 51 50 48 50 46 44 45 47 47 48 48 47
61 63 63 63 63 63 63 63 64 64 63 62 61 63 66 70 72 72 71 71 71 71 70 65 52 50 48 47 54 63 66 68 68 67 67 67 66 66 65 61 63 61 59 58 47 46 46 53 56 54 52 50 49 49 48 44 45 43 42 42 42 43 44
61 62 63 63 64 63 63 63 63 63 63 64 63 63 62 62 67 71 72 72 66 69 70 66 52 49 47 47 53 65 67 68 67 67 66 66 66 65 65 61 60 60 60 55 45 46 46 54 57 54 53 52 51 50 50 45 46 43 44 45 43 45 44
61 62 63 64 64 65 65 63 63 63 63 64 64 65 63 63 63 63 65 68 70 69 70 70 56 48 47 47 50 64 68 67 66 66 66 65 63 64 64 62 57 51 50 47 45 45 45 50 58 56 54 54 52 50 49 47 48 48 47 49 46 45 47
61 61 63 64 65 64 63 63 62 63 62 63 63 63 64 64 64 64 65 64 66 69 70 70 59 46 47 47 47 56 68 68 68 67 66 64 64 63 62 62 60 51 47 46 45 44 45 47 52 57 55 55 55 52 48 49 49 52 48 46 46 45 46
58 59 59 59 59 61 61 62 62 62 62 62 62 62 62 62 63 63 62 62 62 65 66 63 64 46 46 46 47 50 65 69 68 68 66 65 64 63 63 62 61 51 45 45 45 45 45 46 47 57 56 51 47 44 49 51 50 48 47 46 45 45 45
58 59 60 60 60 61 61 61 60 60 60 61 61 61 62 62 61 61 61 62 62 63 64 62 55 52 45 46 46 47 54 63 56 66 67 65 64 64 63 61 59 49 45 45 45 45 45 46 47 54 49 46 45 44 48 51 48 47 46 46 46 46 45
60 59 58 58 57 58 59 59 59 59 59 59 59 60 60 61 60 60 60 60 60 61 61 62 52 50 49 44 45 46 48 53 54 64 68 67 66 65 63 61 56 45 45 45 45 45 45 46 50 48 45 45 43 45 52 48 47 47 46 45 45 46 46